FW9968 Weather Reports


time (UTC)temp
F
wind
direction
speed
knots
gust
knots
rain 1hr
in
rain 24hr
in
rain mn
in
humidity
%
barometer
mb
20260905143637 76 116 0.0 0.0 0.00 0.00 0.00 75 1010.4
20260905143132 76 144 0.0 0.0 0.00 0.00 0.00 73 1010.3
20260905142631 76 153 0.0 0.0 0.00 0.00 0.00 77 1010.3
20260905142131 75 136 0.0 0.0 0.00 0.00 0.00 79 1010.4
20260905141630 75 147 0.0 0.0 0.00 0.00 0.00 77 1010.3
20260905141127 75 185 0.0 0.0 0.00 0.00 0.00 77 1010.1
20260905140622 74 136 0.0 0.0 0.00 0.00 0.00 81 1010.0
20260905140121 73 145 0.0 0.0 0.00 0.00 0.00 81 1010.2
20260905135616 73 186 0.0 0.0 0.00 0.00 0.00 82 1010.1
20260905135112 73 120 0.0 0.0 0.00 0.00 0.00 81 1010.0
20260905134606 73 84 0.0 0.0 0.00 0.00 0.00 82 1009.9
20260905134105 72 139 0.0 0.0 0.00 0.00 0.00 83 1010.1
20260905133601 72 125 0.0 0.0 0.00 0.00 0.00 85 1010.3
20260905133101 72 122 0.0 0.0 0.00 0.00 0.00 84 1009.9
20260905132600 72 145 0.0 0.0 0.00 0.00 0.00 85 1010.1
20260905132055 72 140 0.0 0.0 0.00 0.00 0.00 85 1010.1
20260905131551 72 119 0.0 0.0 0.00 0.00 0.00 86 1010.0
20260905131046 71 125 0.0 0.0 0.00 0.00 0.00 86 1010.0
20260905130545 71 180 0.0 0.0 0.00 0.00 0.00 88 1009.8
20260905130040 71 196 0.0 0.0 0.00 0.00 0.00 86 1009.8
20260905125539 71 159 0.0 0.0 0.00 0.00 0.00 87 1010.2
20260905125035 70 144 0.0 0.0 0.00 0.00 0.00 90 1010.1
20260905124532 70 140 0.0 0.0 0.00 0.00 0.00 91 1010.1
20260905124027 70 154 0.0 0.0 0.00 0.00 0.00 91 1010.1
20260905123523 70 138 0.0 0.0 0.00 0.00 0.00 92 1010.2
20260905123019 70 140 0.0 0.0 0.00 0.00 0.00 93 1010.1
20260905122513 70 144 0.0 0.0 0.00 0.00 0.00 92 1010.3
20260905122009 70 180 0.0 0.0 0.00 0.00 0.00 92 1010.3
20260905121508 70 140 0.0 0.0 0.00 0.00 0.00 93 1010.2
20260905121003 70 139 0.0 0.0 0.00 0.00 0.00 93 1010.4
20260905120457 70 153 0.0 0.0 0.00 0.00 0.00 94 1010.2
20260905115952 69 140 0.0 0.0 0.00 0.00 0.00 94 1010.3
20260905115451 69 142 0.0 0.0 0.00 0.00 0.00 94 1010.1
20260905114946 69 145 0.0 0.0 0.00 0.00 0.00 95 1010.1
20260905114446 69 141 0.0 0.0 0.00 0.00 0.00 95 1010.0
20260905113944 69 145 0.0 0.0 0.00 0.00 0.00 95 1010.1
20260905113440 68 145 0.0 0.0 0.00 0.00 0.00 96 1009.8
20260905112935 68 139 0.0 0.0 0.00 0.00 0.00 96 1010.0
20260905112431 68 137 0.0 0.0 0.00 0.00 0.00 97 1010.0
20260905111925 68 137 0.0 0.0 0.00 0.00 0.00 97 1009.9
20260905111420 68 142 0.0 0.0 0.00 0.00 0.00 98 1009.6
20260905110914 68 138 0.0 0.0 0.00 0.00 0.00 98 1009.7
20260905110408 68 138 0.0 0.0 0.00 0.00 0.00 99 1009.6
20260905105903 68 138 0.0 0.0 0.00 0.00 0.00 99 1009.7
20260905105402 68 140 0.0 0.0 0.00 0.00 0.00 99 1009.7
20260905104856 68 142 0.0 0.0 0.00 0.00 0.00 99 1009.6
20260905104352 68 138 0.0 0.0 0.00 0.00 0.00 99 1009.2
20260905103847 68 140 0.0 0.0 0.00 0.00 0.00 99 1009.2
20260905103342 68 138 0.0 0.0 0.00 0.00 0.00 99 1009.2
20260905102838 69 144 0.0 0.0 0.00 0.00 0.00 99 1009.1
20260905102335 68 140 0.0 0.0 0.00 0.00 0.00 99 1009.3
20260905101834 68 140 0.0 0.0 0.00 0.00 0.00 99 1009.3
20260905101333 68 138 0.0 0.0 0.00 0.00 0.00 99 1009.4
20260905100827 68 144 0.0 0.0 0.00 0.00 0.00 99 1009.3
20260905100324 68 153 0.0 0.0 0.00 0.00 0.00 99 1009.1
20260905095823 68 152 0.0 0.0 0.00 0.00 0.00 99 1009.1
20260905095323 68 145 0.0 0.0 0.00 0.00 0.00 99 1009.2
20260905094817 68 145 0.0 0.0 0.00 0.00 0.00 99 1009.0
20260905094314 68 145 0.0 0.0 0.00 0.00 0.00 99 1009.0
20260905093812 68 145 0.0 0.0 0.00 0.00 0.00 99 1009.3
20260905093308 69 144 0.0 0.0 0.00 0.00 0.00 99 1009.0
20260905092804 69 138 0.0 0.0 0.00 0.00 0.00 99 1009.1
20260905092306 69 138 0.0 0.0 0.00 0.00 0.00 99 1009.3
20260905091759 69 145 0.0 0.0 0.00 0.00 0.00 99 1009.1
20260905091258 69 145 0.0 0.0 0.00 0.00 0.00 99 1009.1
20260905090757 69 144 0.0 0.0 0.00 0.00 0.00 99 1009.1
20260905090253 69 151 0.0 0.0 0.00 0.00 0.00 99 1009.2
20260905085753 69 141 0.0 0.0 0.00 0.00 0.00 99 1009.0
20260905085253 70 138 0.0 0.0 0.00 0.00 0.00 99 1009.1
20260905084748 70 144 0.0 0.0 0.00 0.00 0.00 99 1009.1
20260905084248 70 149 0.0 0.0 0.00 0.00 0.00 99 1009.2
20260905083743 70 151 0.0 0.0 0.00 0.00 0.00 99 1009.0
20260905083238 70 145 0.0 0.0 0.00 0.00 0.00 99 1009.0
20260905082734 70 148 0.0 0.0 0.00 0.00 0.00 99 1009.2
20260905082230 70 149 0.0 0.0 0.00 0.00 0.00 99 1008.9
20260905081729 71 143 0.0 0.0 0.00 0.00 0.00 99 1009.0
20260905081225 71 142 0.0 0.0 0.00 0.00 0.00 99 1008.9
20260905080719 71 145 0.0 0.0 0.00 0.00 0.00 99 1009.1
20260905080219 71 145 0.0 0.0 0.00 0.00 0.00 99 1009.1
20260905075718 71 145 0.0 0.0 0.00 0.00 0.00 99 1009.2
20260905075217 71 145 0.0 0.0 0.00 0.00 0.00 99 1009.2
20260905074716 71 140 0.0 0.0 0.00 0.00 0.00 99 1009.1
20260905074212 72 144 0.0 0.0 0.00 0.00 0.00 99 1009.3
20260905073708 72 146 0.0 0.0 0.00 0.00 0.00 99 1009.2
20260905073203 71 145 0.0 0.0 0.00 0.00 0.00 99 1009.1
20260905072702 71 145 0.0 0.0 0.00 0.00 0.00 99 1009.3
20260905072158 71 145 0.0 0.0 0.00 0.00 0.00 99 1009.2
20260905071654 71 145 0.0 0.0 0.00 0.00 0.00 99 1009.2
20260905071150 72 145 0.0 0.0 0.00 0.00 0.00 99 1009.1
20260905070645 72 183 0.0 0.0 0.00 0.00 0.00 99 1009.4
20260905070141 72 145 0.0 0.0 0.00 0.00 0.00 99 1009.3
20260905065639 72 144 0.0 0.0 0.00 0.00 0.00 99 1009.3
20260905065133 72 144 0.0 0.0 0.00 0.00 0.00 99 1009.4
20260905064629 72 168 0.0 0.0 0.00 0.00 0.00 99 1009.4
20260905064124 72 136 0.0 0.0 0.00 0.00 0.00 99 1009.5
20260905063623 72 152 0.0 0.0 0.00 0.00 0.00 99 1009.5
20260905063119 72 151 0.0 0.0 0.00 0.00 0.00 99 1009.5
20260905062615 72 151 0.0 0.0 0.00 0.00 0.00 99 1009.7
20260905062114 72 151 0.0 0.0 0.00 0.00 0.00 99 1009.6
20260905061609 72 152 0.0 0.0 0.00 0.00 0.00 99 1009.7
20260905061103 72 148 0.0 0.0 0.00 0.00 0.00 99 1009.7
20260905060559 72 150 0.0 0.0 0.00 0.00 0.00 99 1009.7
20260905060054 72 144 0.0 0.0 0.00 0.00 0.00 98 1009.7
20260905055553 72 144 0.0 0.0 0.00 0.00 0.00 98 1009.7
20260905055049 72 143 0.0 0.0 0.00 0.00 0.00 98 1010.1
20260905054544 72 138 0.0 0.0 0.00 0.00 0.00 97 1009.7
20260905054039 72 140 0.0 0.0 0.00 0.00 0.00 97 1009.8
20260905053538 73 148 0.0 0.0 0.00 0.00 0.00 97 1009.8
20260905053034 73 148 0.0 0.0 0.00 0.00 0.00 96 1010.1
20260905052533 73 146 0.0 0.0 0.00 0.00 0.00 96 1009.9
20260905052028 73 148 0.0 0.0 0.00 0.00 0.00 95 1010.1
20260905051524 73 136 0.0 0.0 0.00 0.00 0.00 95 1010.0
20260905051021 73 144 0.0 0.0 0.00 0.00 0.00 96 1010.0
20260905050516 73 144 0.0 0.0 0.00 0.00 0.00 96 1009.8
20260905050013 73 144 0.0 0.0 0.00 0.00 0.00 96 1010.0
20260905045507 74 147 0.0 0.0 0.00 0.00 0.00 97 1010.2
20260905045002 74 157 0.0 0.0 0.00 0.00 0.00 97 1010.0
20260905044457 74 146 0.0 0.0 0.00 0.00 0.00 97 1009.8
20260905043957 74 146 0.0 0.0 0.00 0.00 0.00 97 1009.9
20260905043456 74 147 0.0 0.0 0.00 0.00 0.00 97 1010.0
20260905042951 74 148 0.0 0.0 0.00 0.00 0.00 97 1010.0
20260905042450 74 144 0.0 0.0 0.00 0.00 0.00 97 1010.2
20260905041946 74 144 0.0 0.0 0.00 0.00 0.00 97 1010.0
20260905041442 74 143 0.0 0.0 0.00 0.00 0.00 97 1010.0
20260905040936 74 143 0.0 0.0 0.00 0.00 0.00 97 1010.0
20260905040430 74 143 0.0 0.0 0.00 0.00 0.00 97 1009.9
20260905035930 74 143 0.0 0.0 0.00 0.04 0.04 97 1010.0
20260905035425 74 143 0.0 0.0 0.00 0.04 0.04 97 1009.9
20260905034922 74 143 0.0 0.0 0.00 0.04 0.04 97 1010.0
20260905034417 74 143 0.0 0.0 0.00 0.04 0.04 97 1010.1
20260905033916 74 143 0.0 0.0 0.00 0.04 0.04 97 1010.2
20260905033411 74 143 0.0 0.0 0.00 0.04 0.04 97 1010.1
20260905032911 74 143 0.0 0.0 0.00 0.04 0.04 97 1010.2
20260905032406 74 143 0.0 0.0 0.00 0.04 0.04 96 1010.2
20260905031901 74 143 0.0 0.0 0.00 0.04 0.04 96 1010.1
20260905031357 74 143 0.0 0.0 0.00 0.04 0.04 96 1010.1
20260905030852 74 143 0.0 0.0 0.00 0.04 0.04 96 1010.2
20260905030348 74 143 0.0 0.0 0.00 0.04 0.04 96 1010.0
20260905025846 74 146 0.0 0.0 0.00 0.04 0.04 96 1010.0
20260905025342 74 146 0.0 0.0 0.00 0.04 0.04 96 1010.0
20260905024839 74 155 0.0 0.0 0.00 0.04 0.04 96 1010.2
20260905024333 74 136 0.0 0.0 0.00 0.04 0.04 96 1010.2
20260905023829 74 144 0.0 0.0 0.00 0.04 0.04 96 1010.0
20260905023324 74 140 0.0 0.0 0.00 0.04 0.04 95 1009.9
20260905022822 74 143 0.0 0.0 0.00 0.04 0.04 95 1010.1
20260905022318 74 136 0.0 0.0 0.00 0.04 0.04 95 1010.0
20260905021818 74 143 0.0 0.0 0.00 0.04 0.04 95 1010.2
20260905021314 74 143 0.0 0.0 0.00 0.04 0.04 94 1010.0
20260905020813 74 143 0.0 0.0 0.00 0.04 0.04 94 1009.9
20260905020309 74 144 0.0 0.0 0.00 0.04 0.04 94 1009.9
20260905015808 74 144 0.0 0.0 0.00 0.04 0.04 94 1009.8
20260905015306 75 144 0.0 0.0 0.00 0.04 0.04 94 1009.9
20260905014801 75 144 0.0 0.0 0.00 0.04 0.04 94 1009.8
20260905014257 75 139 0.0 0.0 0.00 0.04 0.04 94 1010.0
20260905013752 75 139 0.0 0.0 0.00 0.04 0.04 94 1010.0
20260905013248 75 137 0.0 0.0 0.00 0.04 0.04 93 1010.0
20260905012744 75 137 0.0 0.0 0.00 0.04 0.04 93 1010.0
20260905012239 75 149 0.0 0.0 0.00 0.04 0.04 92 1010.1
20260905011736 75 149 0.0 0.0 0.00 0.04 0.04 92 1010.0
20260905011231 75 149 0.0 0.0 0.00 0.04 0.04 92 1010.1
20260905010726 75 149 0.0 0.0 0.00 0.04 0.04 92 1010.1
20260905010221 75 152 0.0 0.0 0.00 0.04 0.04 92 1010.2
20260905005717 75 151 0.0 0.0 0.00 0.04 0.04 92 1010.2
20260905005213 75 153 0.0 0.0 0.00 0.04 0.04 91 1010.0
20260905004707 75 153 0.0 0.0 0.00 0.04 0.04 91 1010.1
20260905004203 75 152 0.0 0.0 0.00 0.04 0.04 91 1009.8
20260905003657 75 148 0.0 0.0 0.00 0.04 0.04 91 1009.9
20260905003154 75 153 0.0 0.0 0.00 0.04 0.04 91 1009.8
20260905002649 75 154 0.0 0.0 0.00 0.04 0.04 90 1009.9
20260905002149 75 150 0.0 0.0 0.00 0.04 0.04 90 1009.8
20260905001644 75 150 0.0 0.0 0.00 0.04 0.04 90 1009.7
20260905001143 76 144 0.0 0.0 0.00 0.04 0.04 89 1009.4
20260905000638 76 143 0.0 0.0 0.00 0.04 0.04 89 1009.5
20260905000135 76 150 0.0 0.0 0.00 0.04 0.04 88 1009.6
20260904235634 76 151 0.0 0.0 0.00 0.04 0.04 88 1009.7
20260904235133 76 157 0.0 0.0 0.00 0.04 0.04 87 1009.7
20260904234628 77 144 0.0 0.0 0.00 0.04 0.04 87 1009.5
20260904234124 77 156 0.0 0.0 0.00 0.04 0.04 87 1009.7
20260904233620 77 151 0.0 0.0 0.00 0.04 0.04 85 1009.7
20260904233116 78 150 0.0 0.0 0.00 0.04 0.04 85 1009.6
20260904232612 78 162 0.0 0.0 0.00 0.04 0.04 83 1009.6
20260904232108 78 142 0.0 0.0 0.00 0.04 0.04 83 1009.8
20260904231604 78 151 0.0 0.0 0.00 0.04 0.04 82 1009.8
20260904231058 79 149 0.0 0.0 0.00 0.04 0.04 82 1009.6
20260904230557 79 149 0.0 0.0 0.00 0.04 0.04 80 1009.8
20260904230053 79 136 0.0 0.0 0.00 0.04 0.04 80 1009.6
20260904225550 79 152 0.0 0.0 0.00 0.04 0.04 82 1009.7
20260904225045 79 154 0.0 0.0 0.00 0.04 0.04 81 1010.0
20260904224540 80 148 0.0 0.0 0.00 0.04 0.04 80 1009.7
20260904224040 80 156 0.0 0.0 0.00 0.04 0.04 80 1009.9
20260904223539 81 135 0.0 0.0 0.00 0.04 0.04 78 1009.6
20260904223035 81 136 0.0 0.0 0.00 0.04 0.04 78 1009.9
20260904222531 81 152 0.0 0.0 0.00 0.04 0.04 79 1009.9
20260904222026 81 145 0.0 0.0 0.00 0.04 0.04 79 1009.7
20260904221520 82 139 0.0 0.0 0.00 0.04 0.04 78 1009.8
20260904221015 82 140 0.0 0.0 0.00 0.04 0.04 76 1009.9
20260904220514 81 142 0.0 0.0 0.00 0.04 0.04 75 1009.8
20260904220011 81 135 0.0 0.0 0.00 0.04 0.04 81 1009.7
20260904215505 82 128 0.0 0.0 0.00 0.04 0.04 80 1009.9
20260904215001 82 150 0.0 0.0 0.00 0.04 0.04 78 1010.0
20260904214456 82 144 0.0 0.0 0.00 0.04 0.04 77 1009.8
20260904213951 82 141 0.0 0.0 0.00 0.04 0.04 80 1010.1
20260904213449 82 139 0.0 0.0 0.00 0.04 0.04 82 1010.1
20260904212946 82 141 0.0 0.0 0.00 0.04 0.04 79 1010.1
20260904212445 82 142 0.0 0.0 0.00 0.04 0.04 81 1009.9
20260904211940 82 146 0.0 0.0 0.00 0.04 0.04 82 1009.7
20260904211440 83 142 0.0 0.0 0.00 0.04 0.04 81 1009.7
20260904210936 83 144 0.0 0.0 0.00 0.04 0.04 79 1009.7
20260904210435 84 140 0.0 0.0 0.00 0.04 0.04 79 1009.3
20260904205931 84 139 0.0 0.0 0.00 0.04 0.04 79 1009.4
20260904205426 84 146 0.0 0.0 0.00 0.04 0.04 77 1009.8
20260904204924 85 140 0.0 0.0 0.00 0.04 0.04 75 1009.9
20260904204419 85 162 0.0 0.0 0.00 0.04 0.04 75 1009.8
20260904203915 85 75 0.0 0.0 0.00 0.04 0.04 76 1009.9
20260904203412 84 144 0.0 0.0 0.00 0.04 0.04 76 1009.9
20260904202907 84 140 0.0 0.0 0.00 0.04 0.04 77 1010.1
20260904202403 84 148 0.0 0.0 0.00 0.04 0.04 75 1009.8
20260904201858 86 131 0.0 0.0 0.00 0.04 0.04 73 1010.0
20260904201353 86 126 0.0 0.0 0.00 0.04 0.04 69 1010.1
20260904200849 87 157 0.0 0.0 0.00 0.04 0.04 68 1009.8
20260904200347 87 144 0.0 0.0 0.00 0.04 0.04 66 1010.0
20260904195841 87 140 0.0 0.0 0.00 0.04 0.04 69 1010.3
20260904195340 89 103 0.0 0.0 0.00 0.04 0.04 67 1010.1
20260904194835 88 123 0.0 0.0 0.00 0.04 0.04 62 1010.0
20260904194335 87 221 1.7 1.7 0.00 0.04 0.04 63 1010.2
20260904193830 88 132 0.0 0.0 0.00 0.04 0.04 69 1010.1
20260904193325 87 140 0.0 0.0 0.00 0.04 0.04 66 1010.5
20260904192820 88 166 0.0 0.0 0.00 0.04 0.04 63 1010.3
20260904192315 88 101 0.0 0.0 0.00 0.04 0.04 65 1010.6
20260904191813 88 186 0.9 2.6 0.00 0.04 0.04 64 1010.6
20260904191309 86 113 0.0 0.0 0.00 0.04 0.04 69 1010.8
20260904190805 85 119 0.0 0.0 0.00 0.04 0.04 72 1010.6
20260904190300 84 123 0.0 0.0 0.00 0.04 0.04 73 1011.2
20260904185756 85 132 0.0 0.0 0.00 0.04 0.04 70 1010.9
20260904185251 85 137 0.0 0.0 0.00 0.04 0.04 73 1011.1
20260904184750 85 135 0.0 0.0 0.00 0.04 0.04 74 1011.0
20260904184246 85 129 0.0 0.0 0.00 0.04 0.04 72 1010.9
20260904183742 86 143 0.0 0.0 0.00 0.04 0.04 71 1010.9
20260904183237 86 155 0.0 0.0 0.00 0.04 0.04 71 1011.1
20260904182732 88 127 0.0 0.0 0.00 0.04 0.04 67 1011.0
20260904182227 90 163 0.0 0.0 0.00 0.04 0.04 65 1011.0
20260904181722 90 152 0.0 0.0 0.00 0.04 0.04 64 1010.9
20260904181222 89 183 0.0 0.0 0.00 0.04 0.04 65 1011.0
20260904180718 89 136 0.0 0.0 0.00 0.04 0.04 63 1010.7
20260904180213 90 136 0.0 0.0 0.00 0.04 0.04 63 1010.9
20260904175712 89 174 0.0 0.0 0.00 0.04 0.04 67 1010.9
20260904175210 87 176 0.0 0.0 0.00 0.04 0.04 74 1010.9
20260904174705 84 161 0.0 0.0 0.00 0.04 0.04 74 1011.1
20260904174201 84 144 0.0 0.0 0.00 0.04 0.04 68 1011.2
20260904173656 85 123 0.0 0.0 0.00 0.04 0.04 73 1011.1
20260904173151 87 145 0.0 0.0 0.00 0.04 0.04 69 1011.0
20260904172648 88 262 0.0 0.0 0.00 0.04 0.04 69 1011.0
20260904172147 87 154 0.9 1.7 0.00 0.04 0.04 63 1011.0
20260904171642 87 196 0.0 0.0 0.00 0.04 0.04 68 1011.1
20260904171137 86 186 0.0 0.0 0.00 0.04 0.04 72 1011.1
20260904170634 85 149 0.0 0.0 0.00 0.04 0.04 67 1011.2
20260904170129 86 150 0.0 0.0 0.00 0.04 0.04 71 1011.3
20260904165628 87 148 0.0 0.0 0.00 0.04 0.04 68 1011.1
20260904165122 87 115 0.0 0.0 0.00 0.04 0.04 70 1011.0
20260904164622 87 166 0.0 0.0 0.00 0.04 0.04 70 1011.1
20260904164117 88 179 0.0 0.0 0.00 0.04 0.04 69 1011.1
20260904163613 87 133 0.0 0.0 0.00 0.04 0.04 69 1010.9
20260904163108 87 99 0.0 0.9 0.00 0.04 0.04 67 1011.2
20260904162602 87 144 0.0 0.0 0.00 0.04 0.04 70 1011.1
20260904162057 87 226 0.0 0.0 0.00 0.04 0.04 70 1011.3
20260904161552 86 135 0.0 0.0 0.00 0.04 0.04 69 1011.1
20260904161048 86 133 0.0 0.0 0.00 0.04 0.04 72 1011.5
20260904160543 86 169 0.0 0.0 0.00 0.04 0.04 69 1011.2
20260904160039 85 148 0.0 0.0 0.00 0.04 0.04 71 1011.6
20260904155537 84 140 0.0 0.0 0.00 0.04 0.04 75 1011.6
20260904155032 86 149 0.0 0.0 0.00 0.04 0.04 75 1011.5
20260904154526 86 133 0.0 0.0 0.00 0.04 0.04 74 1011.5
20260904154021 87 156 0.0 0.0 0.00 0.04 0.04 72 1011.4
20260904153520 85 165 0.0 0.0 0.00 0.04 0.04 72 1011.5
20260904153017 86 223 0.0 0.9 0.00 0.04 0.04 70 1011.6
20260904152512 85 163 0.0 0.0 0.00 0.04 0.04 71 1011.7
20260904152008 85 170 0.0 0.0 0.00 0.04 0.04 76 1011.5
20260904151502 85 147 0.0 0.0 0.00 0.04 0.04 76 1011.5
20260904150956 85 244 0.0 0.9 0.00 0.04 0.04 73 1011.5
20260904150451 84 150 0.0 0.0 0.00 0.04 0.04 78 1011.4
20260904145950 83 115 0.0 0.0 0.00 0.04 0.04 78 1011.5
20260904145445 82 165 1.7 2.6 0.00 0.04 0.04 76 1011.5
20260904144941 82 173 0.0 0.0 0.00 0.04 0.04 79 1011.4
20260904144437 81 135 0.0 0.0 0.00 0.04 0.04 80 1011.3
20260904143932 80 130 0.0 0.0 0.00 0.04 0.04 85 1011.4